Location: Bennemühlen
(52.5740°N, 9.7135°E)
Time: 02:58:57
(UTC+00:00)

Vanguard 2 Rocket - Pass Details

Date: 21 February 2026
Orbit: 553 x 3287 km, 32.9° (Epoch: 5 March)

Event Time Altitude Azimuth Distance (km) Brightness Sun altitude
Rises 12:30:28 0° 243° (WSW) 7,256 12.1 25.9°
Reaches altitude 10° 12:36:09 10° 236° (SW) 6,148 12.0 25.6°
Maximum altitude 12:51:44 35° 181° (S) 3,732 11.7 24.9°
Drops below altitude 10° 13:02:52 10° 123° (ESE) 4,394 10.6 24.2°
Sets 13:06:08 0° 114° (ESE) 5,038 10.7 24.0°
